Location: Unspecified
(50.0830°N, 0.0000°E)
Time: 04:00:03
(UTC+00:00)

Envisat - Pass Details

Date: 28 November 2019
Orbit: 764 x 766 km, 98.1° (Epoch: 05 December)

Event Time Altitude Azimuth Distance (km) Brightness Sun altitude
Rises 16:43:46 0° 132° (SE) 3,224 6.0 -6.5°
Reaches altitude 10° 16:46:18 10° 122° (ESE) 2,302 5.2 -6.9°
Maximum altitude 16:50:39 30° 63° (ENE) 1,357 3.8 -7.5°
Drops below altitude 10° 16:55:02 10° 3° (N) 2,314 5.2 -8.2°
Sets 16:57:34 0° 353° (N) 3,245 6.1 -8.6°
